STARLINK-32466

Last updated on Thu Nov 21 2024 00:02:05 GMT+0000 (Coordinated Universal Time)

1 61859U 24202Q 24325.58335648 -.01367639 00000+0 -95256-2 0 9992 2 61859 43.0033 50.5839 0001366 286.3289 133.8845 15.76144699 3230
UTC large
Height (km)
Speed (km/s)
/
Latitude / Longitude
Inclination (degrees)
Orbital Period (minutes)
Azimuth
Elevation
Range (km)
Doppler Factor

Next 0 passes for location: London (51.5072 / 0.1276)

Sorry there are no passes over London.